IZ4UFQ-10 Weather Reports


Display with metric or nautical units.
time (UTC)temp
F
wind
direction
speed
MPH
gust
MPH
rain 1hr
in
rain 24hr
in
rain mn
in
humidity
%
barometer
mb
20260902161738 87 176 0.0 0.0 0.00 0.00 0.00 43 1015.4
20260902161237 88 156 0.0 0.0 0.00 0.00 0.00 44 1015.4
20260902160737 88 177 0.0 0.0 0.00 0.00 0.00 44 1015.4
20260902160237 89 184 0.0 0.0 0.00 0.00 0.00 43 1015.5
20260902155736 89 84 0.0 0.0 0.00 0.00 0.00 42 1015.5
20260902155236 89 85 0.0 0.0 0.00 0.00 0.00 42 1015.5
20260902154736 90 84 0.0 0.0 0.00 0.00 0.00 42 1015.5
20260902154235 90 82 0.0 0.0 0.00 0.00 0.00 42 1015.6
20260902153735 89 60 0.0 0.0 0.00 0.00 0.00 42 1015.6
20260902153235 90 60 0.0 0.0 0.00 0.00 0.00 42 1015.7
20260902152735 89 31 0.0 0.0 0.00 0.00 0.00 43 1015.8
20260902152234 89 30 0.0 0.0 0.00 0.00 0.00 42 1015.8
20260902151734 89 30 0.0 0.0 0.00 0.00 0.00 42 1015.7
20260902151234 89 48 0.0 0.0 0.00 0.00 0.00 42 1015.6
20260902150733 89 51 0.0 0.0 0.00 0.00 0.00 42 1015.7
20260902150233 90 50 0.0 0.0 0.00 0.00 0.00 42 1015.7
20260902145733 90 50 0.0 0.0 0.00 0.00 0.00 42 1015.7
20260902145233 90 36 0.0 0.0 0.00 0.00 0.00 42 1015.7
20260902144732 89 25 0.0 0.0 0.00 0.00 0.00 42 1015.6
20260902144232 89 25 0.0 0.0 0.00 0.00 0.00 43 1015.6
20260902143732 89 32 0.0 0.0 0.00 0.00 0.00 43 1015.6
20260902143231 89 333 0.0 0.0 0.00 0.00 0.00 43 1015.6
20260902142731 89 330 0.0 0.0 0.00 0.00 0.00 43 1015.6
20260902142231 89 321 0.0 0.0 0.00 0.00 0.00 43 1015.7
20260902141731 89 339 0.0 0.0 0.00 0.00 0.00 43 1015.8
20260902141230 89 14 0.0 0.0 0.00 0.00 0.00 44 1015.9
20260902140730 89 15 0.0 0.0 0.00 0.00 0.00 44 1015.9
20260902140230 88 354 0.0 0.0 0.00 0.00 0.00 44 1016.0
20260902135729 88 354 0.0 0.0 0.00 0.00 0.00 44 1016.0
20260902135229 88 28 0.0 0.0 0.00 0.00 0.00 45 1016.1
20260902134729 88 21 0.0 0.0 0.00 0.00 0.00 45 1016.1
20260902134229 87 13 0.0 0.0 0.00 0.00 0.00 45 1016.2
20260902133728 87 328 0.0 0.0 0.00 0.00 0.00 46 1016.2
20260902133228 87 16 0.0 0.0 0.00 0.00 0.00 46 1016.2
20260902132728 87 18 0.0 0.0 0.00 0.00 0.00 46 1016.2
20260902132227 87 31 0.0 0.0 0.00 0.00 0.00 46 1016.3
20260902131727 87 54 0.0 0.0 0.00 0.00 0.00 46 1016.3
20260902131227 87 44 0.0 0.0 0.00 0.00 0.00 46 1016.4
20260902130727 87 23 0.0 0.0 0.00 0.00 0.00 47 1016.4
20260902130226 87 28 0.0 0.0 0.00 0.00 0.00 47 1016.4
20260902125726 87 57 0.0 0.0 0.00 0.00 0.00 47 1016.5
20260902125226 88 18 0.0 0.0 0.00 0.00 0.00 47 1016.5
20260902124725 88 66 0.0 0.0 0.00 0.00 0.00 47 1016.6
20260902124225 87 341 0.0 0.0 0.00 0.00 0.00 47 1016.6
20260902123725 87 26 0.0 0.0 0.00 0.00 0.00 47 1016.7
20260902123225 87 75 0.0 0.0 0.00 0.00 0.00 48 1016.8
20260902122724 87 76 0.0 0.0 0.00 0.00 0.00 47 1016.9
20260902122224 87 10 0.0 0.0 0.00 0.00 0.00 47 1016.8
20260902121724 88 359 0.0 0.0 0.00 0.00 0.00 47 1016.8
20260902121223 88 342 0.0 0.0 0.00 0.00 0.00 47 1016.9
20260902120723 88 16 0.0 0.0 0.00 0.00 0.00 47 1017.0
20260902120223 88 4 0.0 0.0 0.00 0.00 0.00 47 1017.1
20260902115723 88 18 0.0 0.0 0.00 0.00 0.00 48 1017.1
20260902115222 87 23 0.0 0.0 0.00 0.00 0.00 49 1017.2
20260902114722 87 24 0.0 0.0 0.00 0.00 0.00 48 1017.3
20260902114222 87 60 0.0 0.0 0.00 0.00 0.00 48 1017.3
20260902113721 87 46 0.0 0.0 0.00 0.00 0.00 48 1017.3
20260902113221 87 4 0.0 0.0 0.00 0.00 0.00 50 1017.4
20260902112721 86 50 0.0 0.0 0.00 0.00 0.00 50 1017.4
20260902112220 86 55 0.0 0.0 0.00 0.00 0.00 50 1017.5
20260902111720 86 29 0.0 0.0 0.00 0.00 0.00 50 1017.5
20260902111220 87 34 0.0 0.0 0.00 0.00 0.00 50 1017.5
20260902110720 87 28 0.0 0.0 0.00 0.00 0.00 51 1017.6
20260902110219 87 40 0.0 0.0 0.00 0.00 0.00 51 1017.6
20260902105719 86 86 0.0 0.0 0.00 0.00 0.00 52 1017.6
20260902105219 86 78 0.0 0.0 0.00 0.00 0.00 53 1017.7
20260902104718 86 341 0.0 0.0 0.00 0.00 0.00 53 1017.8
20260902104218 86 8 0.0 0.0 0.00 0.00 0.00 53 1018.0
20260902103718 85 310 0.0 0.0 0.00 0.00 0.00 53 1018.0
20260902103218 85 37 0.0 0.0 0.00 0.00 0.00 55 1018.0
20260902102717 84 93 0.0 0.0 0.00 0.00 0.00 56 1018.0
20260902102217 84 38 0.0 0.0 0.00 0.00 0.00 57 1018.1
20260902101717 84 14 0.0 0.0 0.00 0.00 0.00 58 1018.2
20260902101216 84 29 0.0 0.0 0.00 0.00 0.00 57 1018.3
20260902100716 85 354 0.0 0.0 0.00 0.00 0.00 56 1018.2
20260902100216 84 266 0.0 0.0 0.00 0.00 0.00 59 1018.3
20260902095716 84 266 0.0 0.0 0.00 0.00 0.00 59 1018.4
20260902095215 83 270 0.0 0.0 0.00 0.00 0.00 60 1018.4
20260902094715 83 348 0.0 0.0 0.00 0.00 0.00 61 1018.5
20260902094215 83 332 0.0 0.0 0.00 0.00 0.00 61 1018.5
20260902093714 83 16 0.0 0.0 0.00 0.00 0.00 61 1018.6
20260902093214 83 299 0.0 0.0 0.00 0.00 0.00 61 1018.6
20260902092714 83 314 0.0 0.0 0.00 0.00 0.00 61 1018.6
20260902092214 83 14 0.0 0.0 0.00 0.00 0.00 62 1018.6
20260902091713 82 349 0.0 0.0 0.00 0.00 0.00 63 1018.6
20260902091213 82 315 0.0 0.0 0.00 0.00 0.00 64 1018.5
20260902090713 82 266 0.0 0.0 0.00 0.00 0.00 64 1018.5
20260902090212 82 270 0.0 0.0 0.00 0.00 0.00 64 1018.5
20260902085712 81 272 0.0 0.0 0.00 0.00 0.00 64 1018.6
20260902085212 81 274 0.0 0.0 0.00 0.00 0.00 65 1018.7
20260902084712 81 320 0.0 0.0 0.00 0.00 0.00 65 1018.6
20260902084211 81 274 0.0 0.0 0.00 0.00 0.00 65 1018.6
20260902083711 81 262 0.0 0.0 0.00 0.00 0.00 66 1018.6
20260902083211 81 307 0.0 0.0 0.00 0.00 0.00 66 1018.6
20260902082710 80 248 0.0 0.0 0.00 0.00 0.00 65 1018.4
20260902082210 80 224 0.0 0.0 0.00 0.00 0.00 66 1018.3
20260902081710 80 260 0.0 0.0 0.00 0.00 0.00 66 1018.3
20260902081210 79 326 0.0 0.0 0.00 0.00 0.00 67 1018.3
20260902080709 80 308 0.0 0.0 0.00 0.00 0.00 65 1018.3
20260902080209 79 314 0.0 0.0 0.00 0.00 0.00 65 1018.3
20260902075709 79 253 0.0 0.0 0.00 0.00 0.00 65 1018.3
20260902075208 79 253 0.0 0.0 0.00 0.00 0.00 65 1018.3
20260902074708 78 231 0.0 0.0 0.00 0.00 0.00 65 1018.2
20260902074208 78 246 0.0 0.0 0.00 0.00 0.00 65 1018.2
20260902073708 78 246 0.0 0.0 0.00 0.00 0.00 65 1018.1
20260902073207 78 303 0.0 0.0 0.00 0.00 0.00 64 1018.1
20260902072707 78 283 0.0 0.0 0.00 0.00 0.00 64 1018.1
20260902072207 78 282 0.0 0.0 0.00 0.00 0.00 64 1018.0
20260902071706 77 269 0.0 0.0 0.00 0.00 0.00 65 1018.0
20260902071206 77 273 0.0 0.0 0.00 0.00 0.00 65 1018.0
20260902070706 76 275 0.0 0.0 0.00 0.00 0.00 65 1018.0
20260902070205 76 278 0.0 0.0 0.00 0.00 0.00 65 1017.9
20260902065755 76 285 0.0 0.0 0.00 0.00 0.00 65 1017.9
20260902065705 76 285 0.0 0.0 0.00 0.00 0.00 65 1017.9
20260902065205 76 285 0.0 0.0 0.00 0.00 0.00 65 1017.9
20260902064705 76 279 0.0 0.0 0.00 0.00 0.00 65 1017.9
20260902064204 76 287 0.0 0.0 0.00 0.00 0.00 65 1017.9
20260902063704 75 235 0.0 0.0 0.00 0.00 0.00 64 1017.8
20260902063204 75 235 0.0 0.0 0.00 0.00 0.00 66 1017.9
20260902062703 75 235 0.0 0.0 0.00 0.00 0.00 66 1017.8
20260902062203 75 235 0.0 0.0 0.00 0.00 0.00 66 1017.9
20260902061703 74 235 0.0 0.0 0.00 0.00 0.00 67 1017.9
20260902061203 74 235 0.0 0.0 0.00 0.00 0.00 67 1017.9
20260902060702 73 235 0.0 0.0 0.00 0.00 0.00 67 1017.9
20260902060202 73 235 0.0 0.0 0.00 0.00 0.00 67 1017.8
20260902055702 73 235 0.0 0.0 0.00 0.00 0.00 68 1017.8
20260902055201 73 235 0.0 0.0 0.00 0.00 0.00 69 1017.7
20260902054701 73 235 0.0 0.0 0.00 0.00 0.00 69 1017.7
20260902054201 73 235 0.0 0.0 0.00 0.00 0.00 68 1017.7
20260902053701 73 235 0.0 0.0 0.00 0.00 0.00 68 1017.6
20260902053200 73 235 0.0 0.0 0.00 0.00 0.00 67 1017.6
20260902052700 73 235 0.0 0.0 0.00 0.00 0.00 68 1017.6
20260902052200 72 235 0.0 0.0 0.00 0.00 0.00 68 1017.5
20260902051659 72 235 0.0 0.0 0.00 0.00 0.00 68 1017.4
20260902051159 72 235 0.0 0.0 0.00 0.00 0.00 68 1017.5
20260902050659 72 235 0.0 0.0 0.00 0.00 0.00 68 1017.5
20260902050159 72 235 0.0 0.0 0.00 0.00 0.00 68 1017.5
20260902045658 72 235 0.0 0.0 0.00 0.00 0.00 68 1017.5
20260902045158 72 235 0.0 0.0 0.00 0.00 0.00 68 1017.4
20260902044658 72 235 0.0 0.0 0.00 0.00 0.00 68 1017.4
20260902044158 72 235 0.0 0.0 0.00 0.00 0.00 68 1017.4
20260902043657 72 235 0.0 0.0 0.00 0.00 0.00 68 1017.3
20260902043157 72 234 0.0 0.0 0.00 0.00 0.00 68 1017.3
20260902042657 72 233 0.0 0.0 0.00 0.00 0.00 68 1017.2
20260902042156 72 237 0.0 0.0 0.00 0.00 0.00 68 1017.1
20260902041656 72 262 0.0 0.0 0.00 0.00 0.00 68 1017.1
20260902041156 72 229 0.0 0.0 0.00 0.00 0.00 69 1017.1
20260902040655 72 232 0.0 0.0 0.00 0.00 0.00 68 1017.0
20260902040155 71 239 0.0 0.0 0.00 0.00 0.00 68 1017.0
20260902035655 71 243 0.0 0.0 0.00 0.00 0.00 68 1017.0
20260902035155 71 241 0.0 0.0 0.00 0.00 0.00 68 1017.0
20260902034654 72 206 0.0 0.0 0.00 0.00 0.00 68 1017.1
20260902034154 72 206 0.0 0.0 0.00 0.00 0.00 68 1017.1
20260902033654 72 206 0.0 0.0 0.00 0.00 0.00 68 1017.1
20260902033153 72 206 0.0 0.0 0.00 0.00 0.00 68 1017.1
20260902032653 72 205 0.0 0.0 0.00 0.00 0.00 68 1017.1
20260902032153 72 206 0.0 0.0 0.00 0.00 0.00 67 1017.2
20260902031653 72 206 0.0 0.0 0.00 0.00 0.00 67 1017.1
20260902031152 72 205 0.0 0.0 0.00 0.00 0.00 67 1017.1
20260902030652 72 205 0.0 0.0 0.00 0.00 0.00 67 1017.1
20260902030152 72 206 0.0 0.0 0.00 0.00 0.00 67 1017.1
20260902025651 72 205 0.0 0.0 0.00 0.00 0.00 67 1017.1
20260902025151 72 205 0.0 0.0 0.00 0.00 0.00 66 1017.1
20260902024651 72 205 0.0 0.0 0.00 0.00 0.00 66 1017.1
20260902024150 73 205 0.0 0.0 0.00 0.00 0.00 66 1017.1
20260902023650 73 205 0.0 0.0 0.00 0.00 0.00 65 1017.2
20260902023150 73 205 0.0 0.0 0.00 0.00 0.00 64 1017.2
20260902022650 73 205 0.0 0.0 0.00 0.00 0.00 64 1017.1
20260902022149 73 205 0.0 0.0 0.00 0.00 0.00 63 1017.1
20260902021649 73 206 0.0 0.0 0.00 0.00 0.00 63 1017.1
20260902021149 73 205 0.0 0.0 0.00 0.00 0.00 63 1017.1
20260902020648 73 205 0.0 0.0 0.00 0.00 0.00 62 1017.1
20260902020148 73 205 0.0 0.0 0.00 0.00 0.00 62 1017.1
20260902015648 73 205 0.0 0.0 0.00 0.00 0.00 62 1017.1
20260902015148 73 205 0.0 0.0 0.00 0.00 0.00 62 1017.1
20260902014647 73 205 0.0 0.0 0.00 0.00 0.00 62 1017.1
20260902014147 73 200 0.0 0.0 0.00 0.00 0.00 62 1017.1
20260902013647 73 212 0.0 0.0 0.00 0.00 0.00 62 1017.1
20260902013146 74 212 0.0 0.0 0.00 0.00 0.00 62 1017.1
20260902012646 74 212 0.0 0.0 0.00 0.00 0.00 62 1017.0
20260902012146 74 211 0.0 0.0 0.00 0.00 0.00 61 1017.0
20260902011646 74 210 0.0 0.0 0.00 0.00 0.00 61 1017.0
20260902011145 74 208 0.0 0.0 0.00 0.00 0.00 61 1017.1
20260902010645 74 213 0.0 0.0 0.00 0.00 0.00 61 1017.1
20260902010145 74 213 0.0 0.0 0.00 0.00 0.00 61 1017.1
20260902005644 74 213 0.0 0.0 0.00 0.00 0.00 60 1017.0
20260902005144 74 213 0.0 0.0 0.00 0.00 0.00 60 1017.1
20260902004644 74 213 0.0 0.0 0.00 0.00 0.00 60 1017.0
20260902004144 74 211 0.0 0.0 0.00 0.00 0.00 60 1017.0
20260902003643 75 211 0.0 0.0 0.00 0.00 0.00 60 1017.0
20260902003143 75 211 0.0 0.0 0.00 0.00 0.00 60 1017.0
20260902002643 75 211 0.0 0.0 0.00 0.00 0.00 60 1016.9
20260902002142 75 210 0.0 0.0 0.00 0.00 0.00 60 1017.0
20260902001642 75 210 0.0 0.0 0.00 0.00 0.00 60 1017.0
20260902001142 75 210 0.0 0.0 0.00 0.00 0.00 59 1017.0
20260902000642 75 211 0.0 0.0 0.00 0.00 0.00 60 1017.0
20260902000141 75 222 0.0 0.0 0.00 0.00 0.00 60 1017.0
20260901235641 75 210 0.0 0.0 0.00 0.00 0.00 60 1017.0
20260901235141 75 210 0.0 0.0 0.00 0.00 0.00 60 1017.0
20260901234640 75 210 0.0 0.0 0.00 0.00 0.00 60 1017.0
20260901234140 75 208 0.0 0.0 0.00 0.00 0.00 60 1017.0
20260901233640 75 199 0.0 0.0 0.00 0.00 0.00 61 1017.0
20260901233140 75 222 0.0 0.0 0.00 0.00 0.00 62 1016.8
20260901232639 75 235 0.0 0.0 0.00 0.00 0.00 62 1016.8
20260901232139 75 239 0.0 0.0 0.00 0.00 0.00 62 1016.9
20260901231639 75 238 0.0 0.0 0.00 0.00 0.00 63 1016.9
20260901231138 75 221 0.0 0.0 0.00 0.00 0.00 65 1016.9
20260901230638 74 219 0.0 0.0 0.00 0.00 0.00 67 1016.9
20260901230138 73 174 0.0 0.0 0.00 0.00 0.00 70 1016.9
20260901225638 73 164 0.0 0.0 0.00 0.00 0.00 74 1016.8
20260901225137 73 112 0.0 0.0 0.00 0.00 0.00 74 1016.9
20260901224637 73 112 0.0 0.0 0.00 0.00 0.00 74 1016.9
20260901224137 73 112 0.0 0.0 0.00 0.00 0.00 74 1016.9
20260901223636 73 112 0.0 0.0 0.00 0.00 0.00 74 1016.9
20260901223136 74 112 0.0 0.0 0.00 0.00 0.00 74 1016.9
20260901222636 74 112 0.0 0.0 0.00 0.00 0.00 74 1016.9
20260901222136 74 112 0.0 0.0 0.00 0.00 0.00 75 1016.9
20260901221635 74 112 0.0 0.0 0.00 0.00 0.00 75 1016.9
20260901221135 74 112 0.0 0.0 0.00 0.00 0.00 75 1016.9
20260901220635 75 112 0.0 0.0 0.00 0.00 0.00 75 1016.9
20260901220134 75 112 0.0 0.0 0.00 0.00 0.00 75 1016.9
20260901215634 75 111 0.0 0.0 0.00 0.00 0.00 75 1016.9
20260901215134 75 112 0.0 0.0 0.00 0.00 0.00 75 1016.9
20260901214633 75 112 0.0 0.0 0.00 0.00 0.00 74 1016.8
20260901214133 76 112 0.0 0.0 0.00 0.00 0.00 74 1016.8
20260901213633 76 112 0.0 0.0 0.00 0.00 0.00 74 1016.7
20260901213133 76 112 0.0 0.0 0.00 0.00 0.00 73 1016.8
20260901212632 76 112 0.0 0.0 0.00 0.00 0.00 73 1016.7
20260901212132 76 110 0.0 0.0 0.00 0.00 0.00 73 1016.7
20260901211632 77 110 0.0 0.0 0.00 0.00 0.00 73 1016.6
20260901211131 77 111 0.0 0.0 0.00 0.00 0.00 72 1016.5
20260901210631 77 111 0.0 0.0 0.00 0.00 0.00 72 1016.5
20260901210131 77 111 0.0 0.0 0.00 0.00 0.00 72 1016.6
20260901205631 77 110 0.0 0.0 0.00 0.00 0.00 71 1016.5
20260901205130 78 111 0.0 0.0 0.00 0.00 0.00 71 1016.5
20260901204630 78 111 0.0 0.0 0.00 0.00 0.00 71 1016.4
20260901204130 78 110 0.0 0.0 0.00 0.00 0.00 70 1016.5
20260901203629 78 111 0.0 0.0 0.00 0.00 0.00 70 1016.5
20260901203129 78 111 0.0 0.0 0.00 0.00 0.00 70 1016.5
20260901202629 78 111 0.0 0.0 0.00 0.00 0.00 69 1016.4
20260901202129 78 111 0.0 0.0 0.00 0.00 0.00 69 1016.4
20260901201628 79 111 0.0 0.0 0.00 0.00 0.00 69 1016.4
20260901201128 79 111 0.0 0.0 0.00 0.00 0.00 68 1016.3
20260901200628 79 111 0.0 0.0 0.00 0.00 0.00 68 1016.4
20260901200127 79 111 0.0 0.0 0.00 0.00 0.00 68 1016.3
20260901195627 79 111 0.0 0.0 0.00 0.00 0.00 68 1016.3
20260901195127 79 111 0.0 0.0 0.00 0.00 0.00 67 1016.3
20260901194627 80 110 0.0 0.0 0.00 0.00 0.00 67 1016.4
20260901194127 80 111 0.0 0.0 0.00 0.00 0.00 66 1016.4
20260901193626 80 111 0.0 0.0 0.00 0.00 0.00 65 1016.3
20260901193126 81 110 0.0 0.0 0.00 0.00 0.00 65 1016.3
20260901192625 81 109 0.0 0.0 0.00 0.00 0.00 64 1016.3
20260901192125 81 108 0.0 0.0 0.00 0.00 0.00 64 1016.3
20260901191625 81 109 0.0 0.0 0.00 0.00 0.00 64 1016.2
20260901191125 81 110 0.0 0.0 0.00 0.00 0.00 63 1016.1
20260901190624 81 89 0.0 0.0 0.00 0.00 0.00 63 1016.0
20260901190124 81 96 0.0 0.0 0.00 0.00 0.00 62 1016.0
20260901185624 82 65 0.0 0.0 0.00 0.00 0.00 62 1016.0
20260901185123 82 120 0.0 0.0 0.00 0.00 0.00 61 1015.9
20260901184623 82 79 0.0 0.0 0.00 0.00 0.00 61 1015.9
20260901184123 82 84 0.0 0.0 0.00 0.00 0.00 60 1015.8
20260901183623 82 82 0.0 0.0 0.00 0.00 0.00 60 1015.6
20260901183122 82 80 0.0 0.0 0.00 0.00 0.00 59 1015.6
20260901182622 83 123 0.0 0.0 0.00 0.00 0.00 59 1015.6
20260901182122 83 106 0.0 0.0 0.00 0.00 0.00 58 1015.5
20260901181621 83 114 0.0 0.0 0.00 0.00 0.00 57 1015.4
20260901181121 83 73 0.0 0.0 0.00 0.00 0.00 56 1015.3
20260901180621 83 112 0.0 0.0 0.00 0.00 0.00 56 1015.3
20260901180120 83 113 0.0 0.0 0.00 0.00 0.00 55 1015.3
20260901175620 84 90 0.0 0.0 0.00 0.00 0.00 55 1015.3
20260901175120 84 108 0.0 0.0 0.00 0.00 0.00 55 1015.5
20260901174620 84 93 0.0 0.0 0.00 0.00 0.00 55 1015.4
20260901174119 84 27 0.0 0.0 0.00 0.00 0.00 55 1015.3
20260901173619 84 79 0.0 0.0 0.00 0.00 0.00 55 1015.2
20260901173119 84 59 0.0 0.0 0.00 0.00 0.00 55 1015.3
20260901172618 84 70 0.0 0.0 0.00 0.00 0.00 55 1015.2
20260901172118 84 69 0.0 0.0 0.00 0.00 0.00 55 1015.2
20260901171618 84 61 0.0 0.0 0.00 0.00 0.00 55 1015.1
20260901171118 85 103 0.0 0.0 0.00 0.00 0.00 55 1015.2
20260901170617 85 145 0.0 0.0 0.00 0.00 0.00 55 1015.2
20260901170117 85 68 0.0 0.0 0.00 0.00 0.00 55 1015.1
20260901165617 85 60 0.0 0.0 0.00 0.00 0.00 55 1015.2
20260901165116 85 84 0.0 0.0 0.00 0.00 0.00 55 1015.2
20260901164616 85 50 0.0 0.0 0.00 0.00 0.00 55 1015.2
20260901164116 86 77 0.0 0.0 0.00 0.00 0.00 55 1015.2
20260901163616 86 89 0.0 0.0 0.00 0.00 0.00 54 1015.1
20260901163115 86 109 0.0 0.0 0.00 0.00 0.00 54 1015.2
20260901162615 86 131 0.0 0.0 0.00 0.00 0.00 54 1015.2
20260901162115 86 100 0.0 0.0 0.00 0.00 0.00 54 1015.2